Location: Colonia Mina de C?rbuni
(46.1667°N, 22.7167°E)
Time: 16:17:58
(UTC+00:00)

Vanguard 1 Rocket - Pass Details

Date: 14 April 2024
Orbit: 650 x 4220 km, 34.3° (Epoch: 22 May)

Event Time Altitude Azimuth Distance (km) Brightness Sun altitude
Exits shadow 01:10:59 26° 204° (SSW) 5,320 10.7 -23.6°
Drops below altitude 10° 01:26:18 10° 166° (SSE) 7,323 11.7 -21.7°
Sets 01:34:01 0° 156° (SSE) 8,454 12.2 -20.7°
